Weather History for Hazen, ND

Change the Weather History Date:

Sunday, November 3, 2013

  Actual Average (KN60) Record (KN60)
Temperature  
Mean Temperature 38 °F -  
Max Temperature 50 °F 41 °F 61 °F (2001)
Min Temperature 26 °F 22 °F 5 °F (2003)
Degree Days  
Heating Degree Days 27    
Moisture  
Dew Point 29 °F    
Average Humidity 68    
Maximum Humidity 93    
Minimum Humidity 50    
Precipitation  
Precipitation 0.00 in - - ()
Sea Level Pressure  
Sea Level Pressure 29.58 in    
Wind  
Wind Speed 9 mph (WSW)    
Max Wind Speed 20 mph    
Max Gust Speed 26 mph    
Visibility 10 miles    
Events      
Averages and records for this station are not official NWS values.
T = Trace of Precipitation, MM = Missing Value Source: NWS Daily Summary

Daily Weather History Graph

Daily Weather History Graph

Search for Another Location

Airport:

Trip Planner

Search our weather history database for the weather conditions in past years. The results will help you decide how hot, cold, wet, or windy it might be!

Date:

Astronomy

Nov. 03, 2013 Rise Set
Actual Time 7:33 AM CST 5:25 PM CST
Civil Twilight 7:00 AM CST 5:58 PM CST
Nautical Twilight 6:24 AM CST 6:34 PM CST
Astronomical Twilight 5:48 AM CST 7:10 PM CST
Moon 7:40 AM CST (11/3) 5:40 PM CST (11/3)
Length of Visible Light 10h 57m
Length of Day
9h 52m
New Moon, 0% of the Moon is Illuminated
Nov 3
New Moon
Nov 9
First Quarter
Nov 17
Full
Nov 25
Last Quarter
Dec 2
New

Hourly Weather History & Observations

Time (CST) Temp. Windchill Dew Point Humidity Pressure Visibility Wind Dir Wind Speed Gust Speed Precip Events Conditions
12:15 AM 41.0 °F 31.9 °F 28.4 °F 61% 29.69 in 10.0 mi SE 19.6 mph 26.5 mph N/A   Clear
12:35 AM 41.0 °F 32.8 °F 28.4 °F 61% 29.68 in 10.0 mi SE 16.1 mph 24.2 mph N/A   Clear
12:55 AM 39.2 °F 30.5 °F 28.4 °F 65% 29.67 in 10.0 mi ESE 16.1 mph 24.2 mph N/A   Clear
1:15 AM 39.2 °F 30.5 °F 30.2 °F 70% 29.66 in 10.0 mi ESE 16.1 mph 23.0 mph N/A   Clear
1:35 AM 41.0 °F 33.1 °F 30.2 °F 65% 29.64 in 10.0 mi ESE 15.0 mph 20.7 mph N/A   Clear
1:55 AM 41.0 °F 33.1 °F 30.2 °F 65% 29.63 in 10.0 mi East 15.0 mph 21.9 mph N/A   Clear
1:15 AM 41.0 °F 34.7 °F 30.2 °F 65% 29.64 in 10.0 mi East 10.4 mph 18.4 mph N/A   Clear
1:35 AM 41.0 °F 35.8 °F 28.4 °F 61% 29.63 in 10.0 mi East 8.1 mph - N/A   Clear
1:55 AM 41.0 °F 34.3 °F 28.4 °F 61% 29.62 in 10.0 mi ESE 11.5 mph 17.3 mph N/A   Clear
2:15 AM 41.0 °F 35.2 °F 28.4 °F 61% 29.61 in 10.0 mi ESE 9.2 mph - N/A   Clear
2:35 AM 39.2 °F 33.6 °F 28.4 °F 65% 29.61 in 10.0 mi East 8.1 mph - N/A   Clear
2:55 AM 39.2 °F 34.2 °F 28.4 °F 65% 29.60 in 10.0 mi East 6.9 mph - N/A   Clear
3:15 AM 39.2 °F 33.6 °F 28.4 °F 65% 29.59 in 10.0 mi ESE 8.1 mph - N/A   Clear
3:35 AM 39.2 °F 34.2 °F 28.4 °F 65% 29.58 in 10.0 mi East 6.9 mph - N/A   Clear
3:55 AM 37.4 °F 32.8 °F 28.4 °F 70% 29.58 in 10.0 mi ENE 5.8 mph - N/A   Clear
4:15 AM 39.2 °F 33.0 °F 28.4 °F 65% 29.57 in 10.0 mi East 9.2 mph - N/A   Clear
4:35 AM 39.2 °F 33.0 °F 28.4 °F 65% 29.56 in 10.0 mi ESE 9.2 mph - N/A   Clear
4:55 AM 37.4 °F 32.8 °F 28.4 °F 70% 29.56 in 10.0 mi East 5.8 mph - N/A   Clear
5:15 AM 33.8 °F 28.6 °F 26.6 °F 75% 29.55 in 10.0 mi ENE 5.8 mph - N/A   Clear
5:35 AM 35.6 °F 30.7 °F 28.4 °F 75% 29.54 in 10.0 mi East 5.8 mph - N/A   Clear
5:55 AM 35.6 °F 31.7 °F 26.6 °F 70% 29.53 in 10.0 mi NE 4.6 mph - N/A   Partly Cloudy
6:15 AM 32.0 °F 27.5 °F 26.6 °F 80% 29.54 in 10.0 mi NNE 4.6 mph - N/A   Partly Cloudy
6:35 AM 32.0 °F 28.7 °F 26.6 °F 80% 29.53 in 10.0 mi NE 3.5 mph - N/A   Partly Cloudy
6:55 AM 30.2 °F - 26.6 °F 86% 29.54 in 10.0 mi Calm Calm - N/A   Clear
7:15 AM 28.4 °F 24.6 °F 24.8 °F 86% 29.54 in 10.0 mi East 3.5 mph - N/A   Clear
7:35 AM 26.6 °F - 23.0 °F 86% 29.53 in 10.0 mi Calm Calm - N/A   Clear
7:55 AM 26.6 °F 21.2 °F 24.8 °F 93% 29.52 in 10.0 mi ENE 4.6 mph - N/A   Clear
8:15 AM 30.2 °F - 26.6 °F 86% 29.51 in 10.0 mi Calm Calm - N/A   Clear
8:35 AM 32.0 °F - 28.4 °F 87% 29.54 in 10.0 mi Calm Calm - N/A   Clear
8:55 AM 33.8 °F - 28.4 °F 81% 29.55 in 10.0 mi Calm Calm - N/A   Clear
9:15 AM 35.6 °F 32.8 °F 28.4 °F 75% 29.55 in 10.0 mi West 3.5 mph - N/A   Clear
9:35 AM 35.6 °F - 28.4 °F 75% 29.55 in 10.0 mi Calm Calm - N/A   Clear
9:55 AM 37.4 °F - 28.4 °F 70% 29.53 in 10.0 mi Calm Calm - N/A   Clear
10:15 AM 39.2 °F - 30.2 °F 70% 29.52 in 10.0 mi Calm Calm - N/A   Clear
10:35 AM 39.2 °F 35.9 °F 30.2 °F 70% 29.53 in 10.0 mi WSW 4.6 mph - N/A   Clear
10:55 AM 39.2 °F 35.0 °F 30.2 °F 70% 29.53 in 10.0 mi WSW 5.8 mph - N/A   Clear
11:15 AM 39.2 °F - 30.2 °F 70% 29.52 in 10.0 mi Calm Calm - N/A   Clear
11:35 AM 39.2 °F 37.0 °F 30.2 °F 70% 29.52 in 10.0 mi NNW 3.5 mph - N/A   Clear
11:55 AM 41.0 °F - 30.2 °F 65% 29.53 in 10.0 mi Calm Calm - N/A   Clear
12:15 PM 41.0 °F 38.0 °F 32.0 °F 70% 29.53 in 10.0 mi WNW 4.6 mph - N/A   Clear
12:35 PM 42.8 °F - 32.0 °F 66% 29.53 in 10.0 mi Calm Calm - N/A   Clear
12:55 PM 44.6 °F - 32.0 °F 61% 29.53 in 10.0 mi Calm Calm - N/A   Clear
1:15 PM 44.6 °F 43.1 °F 32.0 °F 61% 29.52 in 10.0 mi NNW 3.5 mph - N/A   Clear
1:35 PM 46.4 °F 42.9 °F 32.0 °F 57% 29.54 in 10.0 mi WSW 6.9 mph - N/A   Clear
1:55 PM 46.4 °F 43.5 °F 32.0 °F 57% 29.54 in 10.0 mi WSW 5.8 mph - N/A   Clear
2:15 PM 46.4 °F 44.3 °F 32.0 °F 57% 29.55 in 10.0 mi West 4.6 mph - N/A   Clear
2:35 PM 48.2 °F - 32.0 °F 54% 29.53 in 10.0 mi NNW 12.7 mph - N/A   Clear
2:55 PM 50.0 °F - 32.0 °F 50% 29.53 in 10.0 mi NW 10.4 mph - N/A   Clear
3:15 PM 50.0 °F - 32.0 °F 50% 29.53 in 10.0 mi NW 9.2 mph - N/A   Clear
3:35 PM 50.0 °F - 33.8 °F 54% 29.57 in 10.0 mi NW 6.9 mph - N/A   Clear
3:55 PM 50.0 °F - 33.8 °F 54% 29.58 in 10.0 mi NW 4.6 mph - N/A   Clear
4:15 PM 50.0 °F - 35.6 °F 58% 29.58 in 10.0 mi NW 4.6 mph - N/A   Clear
4:35 PM 48.2 °F - 35.6 °F 62% 29.58 in 10.0 mi WNW 4.6 mph - N/A   Clear
4:55 PM 48.2 °F - 35.6 °F 62% 29.58 in 10.0 mi WNW 3.5 mph - N/A   Clear
5:15 PM 46.4 °F - 35.6 °F 66% 29.58 in 10.0 mi Calm Calm - N/A   Scattered Clouds
5:35 PM 44.6 °F 40.7 °F 32.0 °F 61% 29.59 in 10.0 mi West 6.9 mph - N/A   Mostly Cloudy
5:55 PM 44.6 °F 40.2 °F 30.2 °F 57% 29.61 in 10.0 mi West 8.1 mph - N/A   Mostly Cloudy
6:15 PM 41.0 °F 36.4 °F 30.2 °F 65% 29.62 in 10.0 mi WSW 6.9 mph - N/A   Mostly Cloudy
6:35 PM 41.0 °F 36.4 °F 30.2 °F 65% 29.63 in 10.0 mi WSW 6.9 mph - N/A   Overcast
6:55 PM 41.0 °F 37.1 °F 30.2 °F 65% 29.64 in 10.0 mi SW 5.8 mph - N/A   Overcast
7:15 PM 41.0 °F 36.4 °F 28.4 °F 61% 29.64 in 10.0 mi SW 6.9 mph - N/A   Overcast
7:35 PM 42.8 °F 38.6 °F 30.2 °F 61% 29.65 in 10.0 mi WSW 6.9 mph - N/A   Overcast
7:55 PM 41.0 °F 39.0 °F 30.2 °F 65% 29.65 in 10.0 mi WNW 3.5 mph - N/A   Overcast
8:15 PM 39.2 °F - 30.2 °F 70% 29.65 in 10.0 mi Calm Calm - N/A   Overcast
8:35 PM 39.2 °F 37.0 °F 28.4 °F 65% 29.65 in 10.0 mi WSW 3.5 mph - N/A   Overcast
8:55 PM 33.8 °F 30.8 °F 26.6 °F 75% 29.65 in 10.0 mi SW 3.5 mph - N/A   Overcast
9:15 PM 33.8 °F 30.8 °F 26.6 °F 75% 29.65 in 10.0 mi SW 3.5 mph - N/A   Scattered Clouds
9:35 PM 32.0 °F 26.4 °F 24.8 °F 75% 29.66 in 10.0 mi SW 5.8 mph - N/A   Clear
9:55 PM 32.0 °F 28.7 °F 24.8 °F 75% 29.66 in 10.0 mi WSW 3.5 mph - N/A   Clear
10:15 PM 32.0 °F 28.7 °F 24.8 °F 75% 29.66 in 10.0 mi WSW 3.5 mph - N/A   Clear
10:35 PM 30.2 °F 22.6 °F 24.8 °F 80% 29.66 in 10.0 mi WSW 8.1 mph - N/A   Clear
10:55 PM 32.0 °F 24.8 °F 24.8 °F 75% 29.68 in 10.0 mi SW 8.1 mph - N/A   Clear